Flag for Germany Weather past 2 weeks in Bergisch Gladbach, North Rhine-Westphalia, Germany

Now
61 °F

Sprinkles. Broken clouds.


Feels Like: 61 °F
Forecast: 43 / 53 °F
Wind: 3 mph from Northeast

Location: Koeln / Bonn

Current Time: Apr 26, 2015 at 2:29:59 PM

Latest Report: Apr 26, 2015 at 1:50 PM


Visibility: N/A

Pressure: 29.71 "Hg

Humidity: 83%

Dew point: 55 °F

Location of Bergisch GladbachLocation

Historic Weather in Bergisch Gladbach — Graph

°F

Bergisch Gladbach temperature yesterday

Maximum temperature yesterday: 59 °F (at 12:20 AM)
Minimum temperature yesterday: 52 °F (at 5:20 AM)
Average temperature yesterday: 56 °F

Past Weeks' High & Low Weather Summary

 TemperatureHumidityPressure
High77 °F (Apr 15, 4:20 PM)100% (Apr 23, 7:20 AM)30.48 "Hg (Apr 23, 7:20 AM)
Low30 °F (Apr 19, 6:50 AM)22% (Apr 24, 5:20 PM)29.74 "Hg (Apr 26, 5:20 AM)
Average53 °F59%30.16 "Hg
* Reported Apr 11 1:20 PM — Apr 26 1:20 PM, Bergisch Gladbach, Weather by CustomWeather, © 2015

Note: Actual official high and low records may vary slightly from our data, if they occured in-between our weather recording intervals... More about our weather records

Advertising

Bergisch Gladbach weather history for previous 24 hours

 ConditionsComfort  
Time TempWeatherWind HumidityBarometerVisibility
1:20 PM
Sun, Apr 26
59 °FRain showers. Scattered clouds.6 mph82%29.74 "HgN/A
12:50 PM59 °FScattered showers. Partly sunny.9 mph77%29.74 "HgN/A
12:20 PM59 °FScattered showers. Broken clouds.5 mph77%29.74 "HgN/A
11:50 AM61 °FSprinkles. Broken clouds.5 mph72%29.74 "HgN/A
11:20 AM59 °FScattered showers. Broken clouds.3 mph77%29.74 "HgN/A
10:50 AM59 °FBroken clouds.6 mph72%29.77 "HgN/A
10:20 AM59 °FBroken clouds.10 mph77%29.74 "HgN/A
9:50 AM59 °FBroken clouds.6 mph77%29.77 "HgN/A
9:20 AM55 °FPartly sunny.6 mph88%29.77 "HgN/A
8:50 AM55 °FPartly sunny.3 mph88%29.77 "HgN/A
8:20 AM54 °FPartly sunny.5 mph94%29.77 "HgN/A
7:50 AM54 °FPartly sunny.5 mph94%29.77 "HgN/A
7:20 AM54 °FPartly sunny.7 mph88%29.74 "HgN/A
6:50 AM52 °FPassing clouds.6 mph94%29.74 "HgN/A
6:20 AM52 °FPartly cloudy.7 mph94%29.74 "HgN/A
5:50 AM52 °FPartly cloudy.6 mph94%29.74 "HgN/A
5:20 AM52 °FPassing clouds.5 mph94%29.74 "HgN/A
4:50 AM52 °FLight rain. Passing clouds.5 mph94%29.77 "HgN/A
4:20 AM52 °FLight rain. Partly cloudy.7 mph94%29.77 "HgN/A
3:50 AM52 °FLight rain. Passing clouds.7 mph94%29.77 "HgN/A
3:20 AM52 °FLight rain. Mostly cloudy.7 mph94%29.77 "HgN/A
2:50 AM52 °FLight rain. Mostly cloudy.5 mph94%29.77 "HgN/A
2:20 AM54 °FLight rain. Passing clouds.5 mph88%29.77 "HgN/A
1:50 AM52 °FPartly cloudy.6 mph94%29.77 "HgN/A
1:20 AM52 °FPartly cloudy.7 mph88%29.80 "HgN/A
12:50 AM52 °FFog.7 mph88%29.80 "HgN/A
12:20 AM52 °FFog.8 mph88%29.80 "HgN/A
11:20 PM
Sat, Apr 25
54 °FFog.6 mph88%29.80 "HgN/A
10:50 PM54 °FFog.3 mph88%29.80 "HgN/A
10:20 PM54 °FFog.2 mph94%29.80 "HgN/A
9:50 PM54 °FFog.2 mph94%29.77 "HgN/A
9:20 PM55 °FBroken clouds.3 mph88%29.77 "HgN/A
8:50 PM57 °FSprinkles. Broken clouds.3 mph82%29.77 "HgN/A
8:20 PM57 °FScattered clouds.2 mph88%29.77 "HgN/A
7:50 PM57 °FScattered clouds.3 mph82%29.77 "HgN/A
7:20 PM59 °FBroken clouds.2 mph82%29.77 "HgN/A
6:50 PM59 °FBroken clouds.3 mph82%29.77 "HgN/A
6:20 PM59 °FPartly sunny.6 mph77%29.77 "HgN/A
5:50 PM59 °FLight rain. Partly sunny.6 mph77%29.77 "HgN/A
5:20 PM59 °FLight rain. Broken clouds.6 mph77%29.77 "HgN/A
4:50 PM59 °FLight rain. Broken clouds.6 mph77%29.77 "HgN/A
4:20 PM57 °FBroken clouds.6 mph82%29.77 "HgN/A
3:50 PM57 °FLight rain. Partly sunny.8 mph82%29.77 "HgN/A
3:20 PM57 °FLight rain. Partly sunny.12 mph88%29.77 "HgN/A
2:50 PM57 °FRain showers. Broken clouds.3 mph88%29.77 "Hg2 mi
2:20 PM57 °FSprinkles. Broken clouds.3 mph88%29.77 "Hg2 mi
Weather by CustomWeather, © 2015

See weather overviewHow to use our weather pages